Weather History for GMMN - September, 2013

Change the Weather History Date:

Saturday, September 21, 2013

  Actual Average Record
Temperature  
Mean Temperature 78 °F -  
Max Temperature 95 °F 78 °F 95 °F (2004)
Min Temperature 60 °F 58 °F 59 °F (1999)
Cooling Degree Days 12    
Growing Degree Days 28 (Base 50)    
Moisture  
Dew Point 62 °F    
Average Humidity 64    
Maximum Humidity 100    
Minimum Humidity 17    
Precipitation  
Precipitation 0.00 in - - ()
Sea Level Pressure  
Sea Level Pressure 30.02 in    
Wind  
Wind Speed 5 mph ()    
Max Wind Speed 17 mph    
Max Gust Speed -    
Visibility 5.0 miles    
Events Fog    
Averages and records for this station are not official NWS values.
T = Trace of Precipitation, MM = Missing Value Source: Averaged Metar Reports

Daily Weather History Graph

Daily Weather History Graph

Search for Another Location

Airport or City:

Trip Planner

Search our weather history database for the weather conditions in past years. The results will help you decide how hot, cold, wet, or windy it might be!

Date:

Astronomy

Sep. 21, 2013 Rise Set
Actual Time 7:17 AM WEST 7:28 PM WEST
Civil Twilight 6:53 AM WEST 7:53 PM WEST
Nautical Twilight 6:24 AM WEST 8:22 PM WEST
Astronomical Twilight 5:54 AM WEST 8:51 PM WEST
Moon 8:40 PM WEST (9/21) 9:13 AM WEST (9/21)
Length of Visible Light 13h 00m
Length of Day
12h 10m
Waning Gibbous, 95% of the Moon is Illuminated
Sep 21
Waning Gibbous
Sep 27
Last Quarter
Oct 5
New
Oct 12
First Quarter
Oct 19
Full

Hourly Weather History & Observations

Time (WEST) Temp. Heat Index Dew Point Humidity Pressure Visibility Wind Dir Wind Speed Gust Speed Precip Events Conditions
12:00 AM 69.8 °F - 64.4 °F 83% 30.01 in 6.2 mi NNE 3.5 mph - N/A   Unknown
12:30 AM 68.0 °F - 64.4 °F 88% 30.01 in 6.2 mi NNE 3.5 mph - N/A   Unknown
1:00 AM 68.0 °F - 64.4 °F 88% 30.01 in 5.0 mi NE 3.5 mph - N/A   Unknown
1:30 AM 68.0 °F - 64.4 °F 88% 30.01 in 3.7 mi NE 4.6 mph - N/A   Unknown
2:00 AM 68.0 °F - 64.4 °F 88% 30.01 in 4.3 mi East 3.5 mph - N/A   Unknown
2:30 AM 64.4 °F - 62.6 °F 94% 30.01 in 3.7 mi ESE 4.6 mph - N/A   Unknown
3:00 AM 64.4 °F - 62.6 °F 94% 30.01 in 4.3 mi Variable 1.2 mph - N/A   Unknown
3:30 AM 64.4 °F - 62.6 °F 94% 30.01 in 4.3 mi Calm Calm - N/A   Unknown
4:00 AM 64.4 °F - 60.8 °F 88% 29.98 in 4.3 mi North 3.5 mph - N/A   Unknown
4:30 AM 66.2 °F - 64.4 °F 94% 29.98 in 3.1 mi NNE 4.6 mph - N/A   Unknown
4:56 AM 66.2 °F - 64.4 °F 94% 29.98 in 2.5 mi NNE 4.6 mph - N/A   Scattered Clouds
5:00 AM 66.2 °F - 64.4 °F 94% 29.98 in 2.8 mi NNE 4.6 mph - N/A   Unknown
5:30 AM 66.2 °F - 62.6 °F 88% 30.01 in 2.2 mi Variable 2.3 mph - N/A   Scattered Clouds
6:00 AM 66.2 °F - 64.4 °F 94% 30.01 in - NE 3.5 mph - N/A   Scattered Clouds
6:30 AM 64.4 °F - 62.6 °F 94% 30.01 in 0.3 mi NE 4.6 mph - N/A Fog Fog
7:00 AM 62 °F - 60 °F 93% 30.01 in 0 mi SE 2.3 mph - -   Unknown Precipitation
7:00 AM 62.6 °F - 60.8 °F 94% 30.01 in 0.2 mi SE 2.3 mph - N/A Fog Fog
7:30 AM 60.8 °F - 59.0 °F 94% 30.01 in 1.2 mi Calm Calm - N/A Fog Fog
7:47 AM 60.8 °F - 59.0 °F 94% 30.01 in 1.2 mi Calm Calm - N/A   Scattered Clouds
8:00 AM 60.8 °F - 60.8 °F 100% 30.01 in 3.7 mi Calm Calm - N/A   Scattered Clouds
8:16 AM 62.6 °F - 60.8 °F 94% 30.04 in 3.1 mi SE 2.3 mph - N/A   Scattered Clouds
8:30 AM 62.6 °F - 62.6 °F 100% 30.04 in 4.3 mi SSW 1.2 mph - N/A   Scattered Clouds
9:00 AM 66.2 °F - 64.4 °F 94% 30.04 in 4.3 mi NW 3.5 mph - N/A   Scattered Clouds
9:30 AM 69.8 °F - 66.2 °F 88% 30.04 in 6.2 mi NNE 5.8 mph - N/A   Scattered Clouds
10:00 AM 73 °F - 67 °F 75% 30.02 in 6 mi NNE 6.9 mph - -   Clear
10:00 AM 73.4 °F - 66.2 °F 78% 30.04 in 6.2 mi NNE 6.9 mph - N/A   Scattered Clouds
10:30 AM 78.8 °F - 64.4 °F 61% 30.04 in 6.2 mi North 5.8 mph - N/A   Scattered Clouds
11:00 AM 84.2 °F 85.0 °F 62.6 °F 48% 30.04 in 6.2 mi NNE 4.6 mph - N/A   Scattered Clouds
11:30 AM 86.0 °F 86.1 °F 60.8 °F 43% 30.04 in 6.2 mi North 4.6 mph - N/A   Scattered Clouds
12:00 PM 89.6 °F 89.5 °F 60.8 °F 38% 30.04 in 6.2 mi NNE 4.6 mph - N/A   Scattered Clouds
12:30 PM 91.4 °F 91.4 °F 60.8 °F 36% 30.04 in 6.2 mi North 5.8 mph - N/A   Scattered Clouds
1:00 PM 94 °F - 61 °F 24% 29.99 in 6 mi North 6.9 mph - -   Clear
1:00 PM 93.2 °F 93.3 °F 60.8 °F 34% 30.04 in 6.2 mi North 6.9 mph - N/A   Scattered Clouds
1:30 PM 95.0 °F 94.4 °F 59.0 °F 30% 30.04 in 6.2 mi NNE 6.9 mph - N/A   Scattered Clouds
2:00 PM 95.0 °F 94.4 °F 59.0 °F 30% 30.04 in 6.2 mi NNE 9.2 mph - N/A   Scattered Clouds
2:30 PM 95.0 °F 94.4 °F 59.0 °F 30% 30.01 in 6.2 mi NNE 10.4 mph - N/A   Scattered Clouds
3:00 PM 95.0 °F 93.7 °F 57.2 °F 28% 30.01 in 6.2 mi North 11.5 mph - N/A   Scattered Clouds
3:30 PM 95.0 °F 93.0 °F 55.4 °F 26% 30.01 in 6.2 mi North 15.0 mph - N/A   Scattered Clouds
4:00 PM 95 °F - 55 °F 17% 29.96 in 6 mi North 16.1 mph - -   Mostly Cloudy
4:00 PM 95.0 °F 93.0 °F 55.4 °F 26% 30.01 in 6.2 mi North 16.1 mph - N/A   Scattered Clouds
4:30 PM 91.4 °F 91.4 °F 60.8 °F 36% 30.01 in 6.2 mi North 17.3 mph - N/A   Scattered Clouds
5:00 PM 89.6 °F 89.5 °F 60.8 °F 38% 30.01 in 6.2 mi North 17.3 mph - N/A   Scattered Clouds
5:30 PM 86.0 °F 86.1 °F 60.8 °F 43% 30.01 in 6.2 mi NNE 16.1 mph - N/A   Scattered Clouds
6:00 PM 84.2 °F 85.0 °F 62.6 °F 48% 30.01 in 6.2 mi NNE 13.8 mph - N/A   Scattered Clouds
6:30 PM 84.2 °F 85.0 °F 62.6 °F 48% 30.01 in 6.2 mi NNE 11.5 mph - N/A   Scattered Clouds
7:00 PM 83 °F - 62 °F 38% 30.00 in 6 mi NNE 10.4 mph - -   Mostly Cloudy
7:00 PM 84.2 °F 85.0 °F 62.6 °F 48% 30.04 in 6.2 mi NNE 10.4 mph - N/A   Scattered Clouds
7:30 PM 84.2 °F 84.4 °F 60.8 °F 45% 30.01 in 6.2 mi NNE 9.2 mph - N/A   Scattered Clouds
8:00 PM 82.4 °F 82.9 °F 60.8 °F 48% 30.04 in 6.2 mi NNE 9.2 mph - N/A   Scattered Clouds
8:30 PM 80.6 °F 81.5 °F 60.8 °F 51% 30.04 in 6.2 mi NE 5.8 mph - N/A   Scattered Clouds
9:00 PM 80.6 °F 81.5 °F 60.8 °F 51% 30.04 in 6.2 mi NNE 4.6 mph - N/A   Scattered Clouds
9:30 PM 78.8 °F - 60.8 °F 54% 30.06 in 6.2 mi NE 3.5 mph - N/A   Scattered Clouds
10:00 PM 79 °F - 62 °F 45% 30.04 in 6 mi NNE 4.6 mph - -   Mostly Cloudy
10:00 PM 78.8 °F - 60.8 °F 54% 30.06 in 6.2 mi NNE 4.6 mph - N/A   Scattered Clouds
10:30 PM 77.0 °F - 60.8 °F 57% 30.06 in 6.2 mi ENE 3.5 mph - N/A   Scattered Clouds
11:00 PM 77.0 °F - 62.6 °F 61% 30.06 in 6.2 mi NE 4.6 mph - N/A   Scattered Clouds
11:30 PM 75.2 °F - 60.8 °F 61% 30.06 in 6.2 mi ENE 3.5 mph - N/A   Scattered Clouds